This is the latest recevied weather packets stored in our database for station/object KM7BEO. If no packets are shown the sender has not sent any weather packets the latest 10 day(s).
| Time | Temp. | Humidity | Pressure | Rain* | Wind** | Luminosity | Snow |
|---|---|---|---|---|---|---|---|
| 1778006556 | 13.33° C | 83% | 1015.5 hPa | 0 mm | - | 186 W/m² | - |
| 1778006253 | 13.33° C | 84% | 1015.6 hPa | 0 mm | - | 169 W/m² | - |
| 1778005950 | 13.33° C | 85% | 1015.6 hPa | 0 mm | - | 167 W/m² | - |
| 1778005647 | 13.33° C | 84% | 1015.6 hPa | 0 mm | - | 156 W/m² | - |
| 1778005344 | 13.33° C | 85% | 1015.4 hPa | 0 mm | - | 148 W/m² | - |
| 1778005040 | 13.33° C | 85% | 1015.5 hPa | 0 mm | - | 142 W/m² | - |
| 1778004738 | 13.33° C | 85% | 1015.5 hPa | 0 mm | - | 140 W/m² | - |
| 1778004434 | 13.33° C | 85% | 1015.4 hPa | 0 mm | - | 142 W/m² | - |
| 1778004131 | 12.78° C | 86% | 1015.3 hPa | 0 mm | - | 133 W/m² | - |
| 1778003827 | 12.78° C | 85% | 1015.4 hPa | 0 mm | - | 122 W/m² | - |
| 1778003523 | 12.78° C | 85% | 1015.6 hPa | 0 mm | - | 117 W/m² | - |
| 1778003220 | 12.78° C | 85% | 1015.5 hPa | 0 mm | - | 115 W/m² | - |
| 1778002916 | 12.78° C | 85% | 1015.4 hPa | 0 mm | - | 117 W/m² | - |
| 1778002613 | 12.78° C | 86% | 1015.3 hPa | 0 mm | - | 112 W/m² | - |
| 1778002310 | 12.78° C | 86% | 1015.3 hPa | 0 mm | - | 111 W/m² | - |
| 1778002007 | 12.78° C | 86% | 1015.2 hPa | 0 mm | - | 112 W/m² | - |
| 1778001704 | 12.78° C | 86% | 1015.3 hPa | 0 mm | - | 116 W/m² | - |
| 1778001403 | 12.78° C | 86% | 1015.2 hPa | 0 mm | - | 102 W/m² | - |
| 1778001101 | 12.78° C | 87% | 1015.2 hPa | 0 mm | - | 99 W/m² | - |
| 1778000798 | 12.78° C | 87% | 1015.3 hPa | 0 mm | - | 99 W/m² | - |
| 1778000495 | 12.78° C | 87% | 1015.2 hPa | 0 mm | - | 94 W/m² | - |
| 1778000195 | 12.78° C | 87% | 1015.2 hPa | 0 mm | - | 87 W/m² | - |
| 1777999891 | 12.78° C | 87% | 1015.4 hPa | 0 mm | - | 95 W/m² | - |
| 1777999587 | 12.78° C | 88% | 1015.3 hPa | 0 mm | - | 84 W/m² | - |
| 1777999285 | 12.78° C | 88% | 1015.2 hPa | 0 mm | - | 78 W/m² | - |
* Rain latest hour (hover to see other rain measurements)
** Current wind speed in m/s (hover to see current wind gust speed)